Starlink 34355

operational
NORAD ID: 64306 Int'l Des: 2025-123 Owner: SPXS Country: US Constellation: starlink
LEOCIRCULAR

About Starlink 34355

Description loading...

Live Position

Loading 3D Globe...

Upcoming Passes

Altitude History

Altitude vs Time

uPlot chart will show altitude changes over time

Two-Line Element Set

1 64306U 25123R 25314.78843554 .00005337 00000-0 45461-3 0 9992
2 64306 70.0023 134.4315 0002710 270.3697 89.7152 14.98340382 23805
Epoch: Nov 10, 2025 • Age: 25 hours

Current Status

Altitude 595.4 km
Velocity 7.56 km/s
Sub-Earth Point -68.87°S, 28.15°E
Launch Date Jun 8, 2025
Age 0.4 years
Type internet

Technical Details

Classification Payload
Mass 575.00 kg
Dry Mass 530.00 kg
Total Mass 575.00 kg
Length 0.30 m
Diameter 4.10 m
Span 29.00 m
Shape Box + pan
Manufacturer SPXS
Bus Type Starlink V2MO
Phase Status In Orbit
Owner/State SPXS/US

Large Constellations

Loading constellations...